Hourly Data Report for November 10, 2017

VICTORIA UNIVERSITY CS
BRITISH COLUMBIA

48°27'25.200" N
123°18'16.600" W
60.10 m
1018598
71783
WYJ

Download Data

Hourly Data (November 2017)
Hourly Data Report for November 10, 2017
TIME
LST
Temp Definition
°C
Dew Point Definition
°C
Rel Hum Definition
%
Precip. Amount Definition
mm

Wind Dir Definition
10's deg

Wind Spd Definition
km/h
Visibility Definition
km
Stn Press Definition
kPa
Hmdx Definition


Wind Chill Definition


Weather Definition


00:00 8.3 7.3 93 0.0 5 2   100.34     LegendNANA
01:00 8.4 7.3 93 0.0 4 2   100.30     LegendNANA
02:00 8.1 7.3 95 0.0 36 5   100.33     LegendNANA
03:00 7.6 6.8 94 0.0 35 8   100.32     LegendNANA
04:00 7.7 6.8 94 0.0 36 7   100.31     LegendNANA
05:00 7.7 7.1 96 0.0 35 8   100.34     LegendNANA
06:00 7.8 6.8 93 0.0 1 8   100.36     LegendNANA
07:00 7.7 6.7 93 0.0 1 8   100.39     LegendNANA
08:00 7.8 6.8 93 0.0 35 10   100.43     LegendNANA
09:00 8.1 6.8 91 0.0 36 9   100.46     LegendNANA
10:00 8.4 6.8 90 0.0 36 12   100.50     LegendNANA
11:00 9.1 7.3 88 0.0 35 8   100.53     LegendNANA
12:00 9.8 7.2 84 0.0 30 3   100.54     LegendNANA
13:00 11.2 6.5 73 0.0 2 4   100.51     LegendNANA
14:00 10.1 6.1 76 0.0 1 7   100.51     LegendNANA
15:00 10.2 5.4 72 0.0 2 7   100.55     LegendNANA
16:00 9.1 5.9 81 0.0 36 5   100.61     LegendNANA
17:00 6.6 4.6 87 0.0 35 1   100.63     LegendNANA
18:00 5.1 4.4 95 0.0 32 4   100.66     LegendNANA
19:00 7.2 6.7 96 0.0 7 1   100.71     LegendNANA
20:00 7.3 6.3 94 0.0 36 2   100.72     LegendNANA
21:00 6.9 6.1 95 0.0   0   100.76     LegendNANA
22:00 7.3 6.5 95 0.0   0   100.80     LegendNANA
23:00 7.6 6.9 95 0.0 3 2   100.83     LegendNANA

Notes on Data Quality.

Legend

  • E = Estimated
  • M = Missing
  • NA = Not Available*
  • [empty] = Indicates an unobserved value
Date modified: